カタログに戻る

CZ-6A DEB

運用中PO
NORAD 61362·DEBRIS·🇨🇳 China

打ち上げ Aug 6, 2024 から Taiyuan Satellite Launch Center

Loading…

次のパス (今後24時間)

TLE

最新Source: Space-Track

元期: Sep 13, 2026, 01:25 UTC

1 61362U 24140WB  26256.05945388  .00000421  00000-0  21018-3 0  9994
2 61362  89.1123 276.1193 0071989 281.5100  77.8010 14.13893668104461

AllMySatでCZ-6A DEBをリアルタイム追跡

Download on the App Store